Regional Weather Roundup
Issued by NWS Newport/Morehead, NC

Current Version | Previous Version | Graphics & Text | Print | Product List | Glossary Off
Versions: 1 2 3 4 5 6 7 8 9 10 11 12 13 14 15 16 17 18 19 20 21 22 23 24 25 26 27 28 29 30 31 32 33 34 35 36 37 38 39 40 41 42 43 44 45 46 47 48 49 50

000
ASUS42 KMHX 061325
RWRMHX
WEATHER ROUNDUP FOR EASTERN NORTH CAROLINA
NATIONAL WEATHER SERVICE NEWPORT/MOREHEAD CITY NC
900 AM EDT FRI MAY 06 2016

NOTE: "FAIR" INDICATES FEW OR NO CLOUDS BELOW 12,000 FEET
WITH NO SIGNIFICANT WEATHER AND/OR OBSTRUCTIONS TO VISIBILITY

NCZ015>017-031-032-045>047-102-103-061400-
NORTH COAST

CITY           SKY/WX    TMP DP  RH WIND       PRES   REMARKS
EDENTON        CLOUDY    55  55 100 CALM      29.69R
ELIZABETH CITY CLOUDY    55  49  80 N3        29.68R
KITTY HAWK     PTSUNNY   58  52  82 CALM      29.67R
MANTEO         CLOUDY    55  51  86 S5        29.69R

$$

NCZ045>047-081-094-103-104-061400-
CENTRAL COAST

CITY           SKY/WX    TMP DP  RH WIND       PRES   REMARKS
FRISCO         MOSUNNY   58  51  78 SW10      29.68R
SWANQUARTER    NOT AVBL

$$

NCZ095-097-098-100-101-061400-
SOUTHERN COAST

CITY           SKY/WX    TMP DP  RH WIND       PRES   REMARKS
BEAUFORT       CLOUDY    52  48  86 W9        29.71R
CEDAR ISLAND   NOT AVBL
JACKSONVILLE   CLOUDY    53  49  86 W8        29.71R
PINEY ISLAND   CLOUDY   N/A N/A N/A SW12      29.69
WILMINGTON     CLOUDY    52  48  86 W10       29.74R


$$

NCZ011>013-027>030-043-044-078>080-089-090>093-098-061400-
COASTAL PLAIN

CITY           SKY/WX    TMP DP  RH WIND       PRES   REMARKS
AHOSKIE        RAIN      51  50  95 SE3       29.69R
CLINTON        CLOUDY    52  50  93 W3        29.74R
ELIZABETHTOWN  CLOUDY    53  48  83 NW7       29.75R
GOLDSBORO      PTSUNNY   54  54 100 NW8       29.69R
GREENVILLE     CLOUDY    52  52 100 N5        29.72R FOG
HAVELOCK       CLOUDY    53  49  86 W8        29.71R
KENANSVILLE    CLOUDY    55  48  79 W8        29.73R
KINSTON        CLOUDY    54  52  94 NW7       29.70R
NEW BERN       CLOUDY    52  50  93 SW7       29.71R FOG
RICHLANDS      CLOUDY    53  50  89 SW6       29.72R
ROCKY MOUNT    CLOUDY    53  52  96 NW7       29.70R
WASHINGTON     CLOUDY    53  50  91 CALM      29.68R
WHITEVILLE     NOT AVBL

$$

AMZ130-135-150-152-154-156-158-170-250-252-270-ANZ085-086-088-633-658-670-061400-
MARINE OBSERVATIONS

STATION/POSITION TIME  TEMP    WIND        PRES    WAVE   SWELL
                       AIR SEA DIR/SP/G            HT/PER HT/PER
                 (UTC) (F)     (DEG/KT/KT) (MB)    (FT/S) (FT/S)
CHESAPEAKE LIGHT 1300   56     290/  1/  1 1005.3
64 E VA BEACH    1250   50 51  260/  8/ 12 1004.6    7/ 8   7/ 8
DUCK             1300   54 59   30/  2/  2 1004.4
2 E DUCK         1211      60                N/A     5/ 8   2/11
OREGON INLET     1300   56 59  150/  4/  6 1004.9
13E OREGON INLT  1300      56                N/A     6/ 8   5/ 8
HATTERAS CG      1300   58 65  220/ 12/ 16 1004.7
DIAMOND BUOY     1250   61 76  270/ 14/ 21 1004.8    5/ 8   5/ 8
CAPE LOOKOUT     1300   55     260/ 13/ 15 1005.5
BEAUFORT LAB     1300   52 65  300/  6/ 11 1005.1
30 SE NEW RVR IN 1225      72                N/A     4/ 7
27 SE WRIGHTSVLE 1308   56 72  280/ 12/ 19 1006.9
5 SE WRIGHTSVLE  1208   53 69  280/ 14/ 21 1007.1
225 S CAPE HAT   1250   70 73  280/ 12/ 19 1007.7    8/ 9   7/ 9
41 SE CHARLESTON 1250   59 72  300/ 16/ 19 1008.9    4/ 5

$$



USA.gov is the U.S. government's official web portal to all federal, state and local government web resources and services.